Starlink 30809

operational
NORAD ID: 58183 Int'l Des: 2023-167 Owner: SPXS Country: US Constellation: starlink
LEOCIRCULAR

Starlink 30809について

説明を読み込み中...

リアルタイム位置

3D地球を読み込み中...

次回通過

高度履歴

Altitude vs Time

uPlot chart will show altitude changes over time

軌道要素

1 58183U 23167J 25258.07037273 .00000581 00000-0 58063-4 0 9995
2 58183 43.0080 20.5304 0001378 270.8233 89.2452 15.02538323104535
Epoch: Sep 15, 2025 • Age: 14 hours

現在のステータス

高度 568.4 km
速度 7.58 km/s
衛星直下点 -35.45°S, 96.22°E
打ち上げ日 Oct 30, 2023
運用期間 1.8 years
タイプ internet

技術仕様

分類 Payload
質量 730.00 kg
乾燥質量 700.00 kg
総質量 730.00 kg
長さ 0.30 m
直径 4.10 m
スパン 29.00 m
形状 Box + pan
製造者 SPXS
バスタイプ Starlink V2M
フェーズステータス In Orbit
所有者/国 SPXS/US

大規模コンステレーション

Loading constellations...